Regional Weather Roundup
Issued by NWS

Home | Current Version | Previous Version | Graphics & Text | Print | Product List | Glossary On
Versions: 1 2 3 4 5 6 7 8 9 10 11 12 13 14 15 16 17 18 19 20 21 22 23 24 25 26 27 28 29 30 31 32 33 34 35 36 37 38 39 40 41 42 43 44 45 46 47 48 49 50
000
ASUS43 KLSX 270407
RWRMO

WEATHER SUMMARY FOR MISSOURI
NATIONAL WEATHER SERVICE SPRINGFIELD MO
1000 PM CST THU FEB 26 2015

NOTE: "FAIR" INDICATES FEW OR NO CLOUDS BELOW 12,000 FEET WITH NO
       SIGNIFICANT WEATHER AND/OR OBSTRUCTIONS TO VISIBILITY.
       CURRENT SKY AND/OR WEATHER CONDITIONS ARE NOT AVAILABLE FOR
       CHILLICOTHE AND FARMINGTON.

MOZ001>031-035>038-043-044-053-054-270500-
...NORTHERN AND WESTERN MISSOURI...

CITY           SKY/WX    TMP DP  RH WIND       PRES   REMARKS
KANSAS CTY INT CLEAR      7  -2  66 N9        30.57R WCI  -7
KANSAS C DTWN  CLEAR     11  -2  56 N14       30.59R WCI  -5
LEE`S SUMMIT   CLEAR     10  -2  58 N16G22    30.55R WCI  -7
ST JOSEPH      CLEAR      4  -3  73 N5        30.62R WCI  -5
CHILLICOTHE      N/A      7  -3  64 NW6       30.60R WCI  -3
KIRKSVILLE     CLEAR      2  -5  72 N6        30.54R WCI  -9

$$
MOZ066>068-077>081-088>096-101>105-270500-
...SOUTHWEST MISSOURI...

CITY           SKY/WX    TMP DP  RH WIND       PRES   REMARKS
SPRINGFIELD    CLEAR     15   3  59 N13       30.45R WCI   1
JOPLIN         CLEAR     17   4  56 N7        30.50R WCI   8

$$
MOZ032>034-039>042-045>050-055>058-069>072-270500-
...CENTRAL MISSOURI...

CITY           SKY/WX    TMP DP  RH WIND       PRES   REMARKS
COLUMBIA       CLEAR     10   0  63 N10       30.52R WCI  -4
JEFFERSON CITY CLEAR     13   0  56 N7        30.56R WCI   3
ROLLA          CLEAR     11   0  61 N10       30.46R WCI  -3
SEDALIA        CLEAR     11   1  64 N9        30.55R WCI  -2
WARRENSBURG    CLEAR     12   3  67 N7        30.56R WCI   2
OSAGE BEACH    CLEAR     12   1  62 N6        30.51R WCI   3

$$
MOZ051-052-059>065-270500-
...EAST CENTRAL MISSOURI...

CITY           SKY/WX    TMP DP  RH WIND       PRES   REMARKS
ST LOUIS INTL  CLEAR     12   0  58 N6        30.51R WCI   3
SPIRIT OF STL  CLEAR     12  -1  56 N14       30.52R WCI  -3
ST CHARLES     CLEAR     10   0  63 N12       30.52R WCI  -5

$$
MOZ072>076-082>087-097>100-106>115-270500-
...SOUTH CENTRAL AND SOUTHEAST MISSOURI...

CITY           SKY/WX    TMP DP  RH WIND       PRES   REMARKS
CAPE GIRARDEAU CLOUDY    21  13  71 N16       30.46R WCI   7
FARMINGTON     CLEAR     16   3  57 NW10      30.47R WCI   3
POPLAR BLUFF   CLOUDY    23  11  60 N8        30.45R WCI  14
WEST PLAINS    CLEAR     16   6  65 N8        30.42R WCI   5

$$


USA.gov is the U.S. government's official web portal to all federal, state and local government web resources and services.